Kelso, MO

5:44 PM CST on February 05, 2016 (GMT -0600)
Cape Girardeau Regional

Weather History for KCGI - September, 2013

Change the Weather History Date:

Monday, September 2, 2013

  Actual Average Record
Temperature  
Mean Temperature 75 °F 74 °F  
Max Temperature 88 °F 86 °F 97 °F (2011)
Min Temperature 62 °F 62 °F 47 °F (1967)
Degree Days  
Heating Degree Days 0 0  
Month to date heating degree days 0 0  
Since 1 July heating degree days 1 1  
Cooling Degree Days 10 9  
Month to date cooling degree days 22 18  
Year to date cooling degree days 1203 1278  
Growing Degree Days 28 (Base 50)    
Moisture  
Dew Point 68 °F    
Average Humidity 73    
Maximum Humidity 100    
Minimum Humidity 45    
Precipitation  
Precipitation 0.00 in 0.11 in 4.66 in (2003)
Month to date precipitation T 0.22  
Year to date precipitation 28.23 31.27  
Sea Level Pressure  
Sea Level Pressure 29.87 in    
Wind  
Wind Speed 4 mph (North)    
Max Wind Speed 13 mph    
Max Gust Speed 17 mph    
Visibility 4 miles    
Events Fog    
T = Trace of Precipitation, MM = Missing Value Source: NWS Daily Summary

Daily Weather History Graph

Daily Weather History Graph

Search for Another Location

Airport or City:

Trip Planner

Search our weather history database for the weather conditions in past years. The results will help you decide how hot, cold, wet, or windy it might be!

Date:

Astronomy

Sep. 02, 2013 Rise Set
Actual Time 6:29 AM CDT 7:25 PM CDT
Civil Twilight 6:03 AM CDT 7:51 PM CDT
Nautical Twilight 5:31 AM CDT 8:23 PM CDT
Astronomical Twilight 4:59 AM CDT 8:55 PM CDT
Moon 3:49 AM CDT (9/2) 5:37 PM CDT (9/2)
Length of Visible Light 13h 48m
Length of Day
12h 55m
Waning Crescent, 8% of the Moon is Illuminated
Sep 2
Waning Crescent
Sep 5
New
Sep 12
First Quarter
Sep 19
Full
Sep 26
Last Quarter

Hourly Weather History & Observations

Time (CDT) Temp. Heat Index Dew Point Humidity Pressure Visibility Wind Dir Wind Speed Gust Speed Precip Events Conditions
12:17 AM 71.6 °F - 69.8 °F 94% 29.86 in 2.5 mi Calm Calm - N/A   Clear
12:44 AM 69.8 °F - 69.8 °F 100% 29.86 in 0.8 mi Calm Calm - N/A   Clear
12:53 AM 70.0 °F - 69.1 °F 97% 29.85 in 0.5 mi Calm Calm - N/A Fog Fog
1:08 AM 69.8 °F - 69.8 °F 100% 29.86 in 0.2 mi Calm Calm - N/A Fog Fog
1:15 AM 69.8 °F - 69.8 °F 100% 29.86 in 0.8 mi Calm Calm - N/A   Mist
1:17 AM 69.8 °F - 69.8 °F 100% 29.86 in 2.0 mi Calm Calm - N/A   Clear
1:22 AM 71.6 °F - 69.8 °F 94% 29.86 in 6.0 mi Calm Calm - N/A   Partly Cloudy
1:26 AM 69.8 °F - 69.8 °F 100% 29.86 in 0.8 mi Calm Calm - N/A   Mist
1:35 AM 69.8 °F - 69.8 °F 100% 29.85 in 0.2 mi Calm Calm - N/A Fog Fog
1:40 AM 69.8 °F - 69.8 °F 100% 29.85 in 1.0 mi Calm Calm - N/A   Mist
1:44 AM 69.8 °F - 69.8 °F 100% 29.85 in 3.0 mi Calm Calm - N/A   Mostly Cloudy
1:51 AM 69.8 °F - 68.0 °F 94% 29.85 in 1.5 mi Calm Calm - N/A   Mostly Cloudy
1:53 AM 69.1 °F - 68.0 °F 96% 29.84 in 1.0 mi Calm Calm - N/A   Mist
1:57 AM 69.8 °F - 68.0 °F 94% 29.85 in 0.5 mi Calm Calm - N/A Fog Fog
2:00 AM 69.8 °F - 68.0 °F 94% 29.85 in 0.2 mi Calm Calm - N/A Fog Fog
2:53 AM 69.1 °F - 68.0 °F 96% 29.83 in 0.2 mi Calm Calm - N/A Fog Fog
3:53 AM 69.1 °F - 69.1 °F 100% 29.83 in 0.2 mi Calm Calm - N/A Fog Fog
4:53 AM 70.0 °F - 70.0 °F 100% 29.84 in 0.2 mi Calm Calm - N/A Fog Fog
5:03 AM 69.8 °F - 69.8 °F 100% 29.85 in 0.2 mi Calm Calm - N/A Fog Fog
5:19 AM 69.8 °F - 69.8 °F 100% 29.85 in 0.2 mi Calm Calm - N/A Fog Fog
5:43 AM 71.6 °F - 69.8 °F 94% 29.86 in 0.5 mi Calm Calm - N/A Fog Fog
5:53 AM 71.1 °F - 70.0 °F 96% 29.85 in 0.5 mi Calm Calm - N/A Fog Fog
6:01 AM 71.6 °F - 69.8 °F 94% 29.87 in 0.2 mi Calm Calm - N/A Fog Fog
6:08 AM 71.6 °F - 71.6 °F 100% 29.87 in 0.2 mi Calm Calm - N/A Fog Fog
6:48 AM 71.6 °F - 69.8 °F 94% 29.88 in 0.2 mi Calm Calm - N/A Fog Fog
6:53 AM 71.1 °F - 70.0 °F 96% 29.88 in 0.2 mi Calm Calm - N/A Fog Fog
7:53 AM 72.0 °F - 71.1 °F 97% 29.89 in 0.5 mi NNW 4.6 mph - N/A Fog Fog
7:57 AM 71.6 °F - 71.6 °F 100% 29.90 in 3.0 mi North 4.6 mph - N/A   Mostly Cloudy
8:06 AM 71.6 °F - 71.6 °F 100% 29.90 in 7.0 mi NNW 4.6 mph - N/A   Scattered Clouds
8:53 AM 77.0 °F - 70.0 °F 79% 29.89 in 10.0 mi NNE 9.2 mph - N/A   Clear
9:53 AM 80.1 °F 82.9 °F 69.1 °F 69% 29.91 in 10.0 mi North 6.9 mph - N/A   Clear
10:53 AM 82.9 °F 86.5 °F 69.1 °F 63% 29.92 in 10.0 mi NNW 5.8 mph - N/A   Mostly Cloudy
11:53 AM 84.9 °F 88.2 °F 68.0 °F 57% 29.92 in 10.0 mi North 8.1 mph - N/A   Partly Cloudy
12:53 PM 84.9 °F 87.1 °F 66.0 °F 53% 29.92 in 10.0 mi NNW 5.8 mph - N/A   Overcast
1:53 PM 87.1 °F 89.2 °F 66.0 °F 49% 29.90 in 10.0 mi NNW 4.6 mph - N/A   Mostly Cloudy
2:53 PM 88.0 °F 89.6 °F 64.9 °F 46% 29.88 in 10.0 mi NNW 10.4 mph - N/A   Clear
3:53 PM 88.0 °F 89.6 °F 64.9 °F 46% 29.87 in 10.0 mi North 6.9 mph - N/A   Partly Cloudy
4:53 PM 87.1 °F 88.3 °F 64.0 °F 46% 29.86 in 10.0 mi North 6.9 mph - N/A   Clear
5:53 PM 86.0 °F 86.8 °F 63.0 °F 46% 29.87 in 10.0 mi North 5.8 mph - N/A   Clear
6:53 PM 81.0 °F 82.5 °F 64.0 °F 56% 29.87 in 10.0 mi NNE 4.6 mph - N/A   Clear
7:53 PM 75.0 °F - 64.0 °F 69% 29.89 in 10.0 mi North 6.9 mph - N/A   Clear
8:53 PM 73.9 °F - 63.0 °F 68% 29.90 in 10.0 mi North 4.6 mph - N/A   Clear
9:53 PM 72.0 °F - 63.0 °F 73% 29.92 in 10.0 mi North 5.8 mph - N/A   Clear
10:53 PM 68.0 °F - 63.0 °F 84% 29.93 in 10.0 mi Calm Calm - N/A   Clear
11:53 PM 64.0 °F - 62.1 °F 93% 29.94 in 10.0 mi WSW 3.5 mph - N/A   Clear